Location: Neuvy Saint Sepulchre
(46.5953°N, 1.8122°E)
Time: 06:49:17
(UTC+01:00)

ISS - Pass Details

Date: 21 November 2023
Orbit: 416 x 417 km, 51.6° (Epoch: 01 December)

Event Time Altitude Azimuth Distance (km) Brightness Sun altitude
Rises 19:48:37 0° 271° (W) 2,359 1.4 -26.3°
Reaches altitude 10° 19:50:49 10° 280° (W) 1,497 0.0 -26.6°
Enters shadow 19:52:18 22° 296° (WNW) 972 -1.3 -26.9°
